Weather History for Nashua, NH

Change the Weather History Date:

Thursday, April 24, 2014

  Actual Average Record
Temperature  
Mean Temperature 48 °F -  
Max Temperature 57 °F 58 °F 89 °F (2001)
Min Temperature 39 °F 37 °F 25 °F (1959)
Degree Days  
Heating Degree Days 18    
Moisture  
Dew Point 23 °F    
Average Humidity 38    
Maximum Humidity 52    
Minimum Humidity 26    
Precipitation  
Precipitation 0.00 in - - ()
Sea Level Pressure  
Sea Level Pressure 30.47 in    
Wind  
Wind Speed 23 mph (NNW)    
Max Wind Speed 40 mph    
Max Gust Speed 51 mph    
Visibility 10 miles    
Events      
Averages and records for this station are not official NWS values.
T = Trace of Precipitation, MM = Missing Value Source: NWS Daily Summary

Daily Weather History Graph

Daily Weather History Graph

Search for Another Location

Airport:

Trip Planner

Search our weather history database for the weather conditions in past years. The results will help you decide how hot, cold, wet, or windy it might be!

Date:

Astronomy

Apr. 24, 2014 Rise Set
Actual Time 5:50 AM EDT 7:38 PM EDT
Civil Twilight 5:20 AM EDT 8:08 PM EDT
Nautical Twilight 4:43 AM EDT 8:45 PM EDT
Astronomical Twilight 4:04 AM EDT 9:25 PM EDT
Moon 3:06 AM EDT (4/24) 2:44 PM EDT (4/24)
Length of Visible Light 14h 48m
Length of Day
13h 48m
Waning Crescent, 24% of the Moon is Illuminated
Apr 24
Waning Crescent
Apr 29
New
May 6
First Quarter
May 14
Full
May 21
Last Quarter

Hourly Weather History & Observations

Time (EDT) Temp. Windchill Dew Point Humidity Pressure Visibility Wind Dir Wind Speed Gust Speed Precip Events Conditions
12:51 AM 45.9 °F 37.8 °F 28.0 °F 50% 30.38 in 10.0 mi NNW 21.9 mph 31.1 mph N/A   Overcast
1:51 AM 45.0 °F 35.8 °F 27.1 °F 50% 30.37 in 10.0 mi NNW 26.5 mph 32.2 mph N/A   Mostly Cloudy
2:51 AM 43.9 °F 36.2 °F 26.1 °F 50% 30.37 in 10.0 mi NNW 17.3 mph 26.5 mph N/A   Partly Cloudy
3:51 AM 41.9 °F 32.3 °F 25.2 °F 52% 30.38 in 10.0 mi NNW 23.0 mph 33.4 mph N/A   Clear
4:51 AM 41.0 °F 31.1 °F 22.1 °F 47% 30.38 in 10.0 mi NNW 23.0 mph 29.9 mph N/A   Clear
5:51 AM 39.9 °F 29.7 °F 19.0 °F 43% 30.40 in 10.0 mi NW 23.0 mph 31.1 mph N/A   Clear
6:51 AM 41.0 °F 30.7 °F 18.1 °F 40% 30.42 in 10.0 mi NNW 25.3 mph 31.1 mph N/A   Clear
7:51 AM 41.9 °F 33.1 °F 18.1 °F 38% 30.43 in 10.0 mi NW 19.6 mph 28.8 mph N/A   Clear
8:51 AM 43.9 °F 32.9 °F 18.1 °F 36% 30.44 in 10.0 mi NNW 35.7 mph 44.9 mph N/A   Clear
9:51 AM 46.9 °F - 20.1 °F 35% 30.44 in 10.0 mi NNW 26.5 mph 43.7 mph N/A   Clear
10:51 AM 50.0 °F - 22.1 °F 33% 30.45 in 10.0 mi North 18.4 mph 36.8 mph N/A   Clear
11:51 AM 52.0 °F - 23.0 °F 32% 30.46 in 10.0 mi NNW 32.2 mph 43.7 mph N/A   Clear
12:51 PM 54.0 °F - 22.1 °F 29% 30.44 in 10.0 mi NNW 40.3 mph 50.6 mph N/A   Clear
1:51 PM 55.9 °F - 22.1 °F 27% 30.45 in 10.0 mi NNW 29.9 mph 39.1 mph N/A   Clear
2:51 PM 56.8 °F - 22.1 °F 26% 30.45 in 10.0 mi NW 35.7 mph 42.6 mph N/A   Clear
4:51 PM 55.9 °F - 23.0 °F 28% 30.49 in 10.0 mi NNW 18.4 mph 41.4 mph N/A   Clear
5:51 PM 54.9 °F - 23.0 °F 29% 30.52 in 10.0 mi NNW 23.0 mph 33.4 mph N/A   Clear
6:51 PM 52.9 °F - 23.0 °F 31% 30.56 in 10.0 mi NNW 18.4 mph 33.4 mph N/A   Clear
7:51 PM 50.9 °F - 24.1 °F 35% 30.60 in 10.0 mi NNW 17.3 mph 32.2 mph N/A   Partly Cloudy
8:51 PM 50.0 °F - 25.2 °F 38% 30.63 in 10.0 mi NNW 12.7 mph - N/A   Partly Cloudy
10:51 PM 47.8 °F - 26.1 °F 43% 30.66 in 10.0 mi WNW 5.8 mph - N/A   Partly Cloudy
11:51 PM 46.9 °F - 27.1 °F 46% 30.67 in 10.0 mi NNW 8.1 mph - N/A   Clear